Regional Weather Roundup
Issued by NWS

Home | Current Version | Previous Version | Graphics & Text | Print | Product List | Glossary On
Versions: 1 2 3 4 5 6 7 8 9 10 11 12 13 14 15 16 17 18 19 20 21 22 23 24 25 26 27 28 29 30 31 32 33 34 35 36 37 38 39 40 41 42 43 44 45 46 47 48 49 50
000
ASUS45 KTFX 180404
RWRMT
MONTANA HOURLY WEATHER ROUNDUP
NATIONAL WEATHER SERVICE GREAT FALLS MT
1004 PM MDT THU APR 17 2014

NOTE: "FAIR" INDICATES FEW OR NO CLOUDS BELOW 12000 FEET WITH NO
SIGNIFICANT WEATHER AND/OR OBSTRUCTIONS TO VISIBILITY.

* THESE STATIONS ARE NOT UNDER NWS QUALITY CONTROL. THEY DO NOT
   REPORT WEATHER SUCH AS PRECIPITATION OR FOG.

MTZ001>007-043-180500-
WEST OF THE DIVIDE
CITY           SKY/WX    TMP DP  RH WIND       PRES   REMARKS
KALISPELL      LGT RAIN  45  43  93 S8        29.73S
MISSOULA       LGT RAIN  46  45  96 NW3       29.76S
BUTTE          CLOUDY    48  30  50 S5        29.74F
MULLAN PASS    LGT SNOW  32  32 100 SW3       29.74S VSB 1/2
* ESSEX        N/A       37  36  96 N/A        N/A
* LINCOLN      N/A       46  37  71 S5         N/A
* LOOKOUT PASS N/A       37  37 100 NE1        N/A
* POLSON       N/A       43  43 100 SE1        N/A
* SEELEY LAKE  N/A       42  41  96 N/A        N/A
* THOMP F APT  CLOUDY    50  23  35 S7G21      N/A
* YAAK HILL    N/A       46  44  93 N/A        N/A
$$

MTZ008-052>055-180500-
SOUTHWEST MONTANA
CITY           SKY/WX    TMP DP  RH WIND       PRES   REMARKS
BOZEMAN        MOCLDY    45  30  56 SE10      29.74F
DILLON         MOCLDY    57  21  25 S23G31    29.72F
W YELLOWSTONE  N/A       44  24  45 S5G10      N/A
* THREE FORKS  MOCLDY    57  28  33 S5         N/A
* BOULDER HILL N/A       49  30  48 S4         N/A
* MONIDA PASS  N/A       47  23  39 S14        N/A
* RAYNOLDS PAS N/A       43  25  49 S15        N/A
* WHITEHALL    N/A       58  23  26 NW5G12     N/A
* WISE RIVER   N/A       47  27  46 E4         N/A
$$

MTZ009>010-012-014-046-048-049-054-180500-
EAST SLOPES AND CENTRAL MONTANA
CITY           SKY/WX    TMP DP  RH WIND       PRES   REMARKS
CUT BANK       MOCLDY    45  36  71 SW9       29.70S
GREAT FALLS    LGT RAIN  48  43  83 W3        29.73R
HELENA         CLOUDY    55  34  45 E5        29.70F
MALMSTROM AFB  LGT RAIN  46  43  89 SE5       29.71S
* CONRAD       MOCLDY    48  37  66 N/A        N/A
* DEARBORN     N/A       53  38  57 NE1        N/A
* EAST GLACIER N/A       40  35  82 W17G22     N/A   WCI  31
* MONARCH      N/A       43  33  68 W6         N/A
* PENDROY      N/A       45  30  56 W3         N/A
* ROGERS PASS  N/A       43  33  68 SE6        N/A
* SAINT MARY   N/A       41  34  76 S4G9       N/A
* SWEET GRASS  N/A       45  39  80 S9         N/A
$$

MTZ011-013-016-021-035-040-045-047-050-051-180500-
NORTH CENTRAL MONTANA
CITY           SKY/WX    TMP DP  RH WIND       PRES   REMARKS
HAVRE          CLOUDY    52  36  55 E9        29.74R
LEWISTOWN      CLOUDY    46  36  68 SE6       29.78R
* CHESTER      N/A       49  35  59 SE7G12     N/A
* DENTON       N/A       48  31  52 S5         N/A
* GEYSER       N/A       45  42  89 S7         N/A
* JUDITH GAP   N/A       46  28  50 E15        N/A
* LOMA         N/A       51  38  61 E4         N/A
$$

MTZ017>020-022>027-061-062-180500-
NORTHEAST MONTANA
CITY           SKY/WX    TMP DP  RH WIND       PRES   REMARKS
GLASGOW        CLOUDY    45  34  65 E22       29.82F
GLENDIVE       CLOUDY    46  30  54 SE15      29.92F
JORDAN         CLOUDY    52  36  55 NW5       29.81S
SIDNEY         CLOUDY    43  28  56 SE9       29.98S
WOLF POINT     CLOUDY    46  30  54 E13       29.90F
* BEAVER HILL  N/A       42  29  60 E22G30     N/A
* CIRCLE       N/A       49  35  59 E11G16     N/A
* LINDSAY DVD  N/A       44  31  60 E15        N/A
* NAVAJO       N/A       37  27  67 SE14G20    N/A   WCI  28
* SACO         N/A       47  33  58 E20G26     N/A
$$

MTZ028>042-056>058-180500-
SOUTHCENTRAL AND SOUTHEAST MONTANA
CITY           SKY/WX    TMP DP  RH WIND       PRES   REMARKS
BAKER          CLOUDY    43  30  60 SE20      29.92F
BILLINGS       MOCLDY    55  32  42 E8        29.78F
LIVINGSTON     MOCLDY    54  25  33 CALM      29.75S
MILES CITY     PTCLDY    52  34  50 SE16G24   29.84R
* LAUREL APT   MOCLDY    54  28  37 N6         N/A
* ROUNDUP APT  CLOUDY    52  32  47 N/A        N/A
* HYSHAM       N/A       51  25  36 E4         N/A
* LAME DEER    N/A       51  26  38 SE6        N/A
* REED POINT   N/A       50  30  46 SE3        N/A
* ROSCOE HILL  N/A       51  11  20 S9         N/A
$$

REGIONAL REPORTS...DAKOTAS
CITY           SKY/WX    TMP DP  RH WIND       PRES   REMARKS
WILLISTON      MOCLDY    39  27  62 SE9       30.01S WCI  33
DICKINSON      CLOUDY    37  27  67 SE17      30.00S WCI  27
CROSBY         CLEAR     32  27  82 E12       30.05F WCI  23
TIOGA          CLEAR     32  27  82 E8        30.07F WCI  25
WATFORD CITY   MOCLDY    36  27  70 SE14      29.99F WCI  27
BISMARCK       MOCLDY    34  23  64 SE8       30.14S WCI  27
GRAND FORKS    CLOUDY    34  18  52 NE6       30.30S WCI  29
FARGO          CLOUDY    34  19  54 NE7       30.29S WCI  28
BUFFALO SD     PTCLDY    43  30  60 SE18G26   29.89F
RAPID CITY     PTCLDY    41  34  76 SE9       29.97S
$$

REGIONAL REPORTS...WYOMING/IDAHO/WASHINGTON
CITY           SKY/WX    TMP DP  RH WIND       PRES   REMARKS
GILLETTE       CLOUDY    48  36  63 SE16G24   29.87S
SHERIDAN       CLOUDY    46  36  68 CALM      29.83R
CODY           MOCLDY    52  25  35 SW10      29.85F
YELLOWSTONE LA PTCLDY    28  23  81 CALM      29.98F
SALMON         CLOUDY    52  30  43 CALM      29.67F
MULLAN PASS    LGT SNOW  32  32 100 SW3       29.74S VSB 1/2
SPOKANE        LGT RAIN  46  43  89 SW18      29.75R

$$




USA.gov is the U.S. government's official web portal to all federal, state and local government web resources and services.